Tracking 35237 objects as of 6-Sep-2026
HD Live streaming from Space Station
objects crossing your sky now

PROGRESS-M 38


PROGRESS-M 38 is no longer on orbit


NORAD ID: 25256
Int'l Code: 1998-015A
Launch date: March 14, 1998
Source: Commonwealth of Independent States (former USSR) (CIS)
Launch site: TYURATAM MISSILE AND SPACE COMPLEX (TTMTR)
Decay date: 1998-05-15
Your satellite tracking list
Your tracking list is empty




NASA's NSSDC Master Catalog

Two Line Element Set (TLE):
1 25256U 98015A   98133.71938815 +.00008834 +00000-0 +96263-4 0  9992
2 25256 051.6591 221.1270 0004996 356.0865 003.7332 15.64274949009362
Source of the keplerian elements: AFSPC